Yozetty's sites:

title views votes rating creation
?Shooting Deer 1,745 9 (4.22)  2009-10-13
?After Obama Saves the World... 80,300 818 (4.60)  2009-01-07
?Saturday Mornings with Sartre 1,439 8 (4.25)  2009-01-07
?John McCain Needs Publicity 25,053 484 (4.34)  2008-10-24
?When George Lucas Dreams... 25,637 559 (4.42)  2008-04-27
?The Democratic Destruction 9,922 357 (4.16)  2008-03-29
?Obamanable Snowman - 2008 5,071 141 (3.82)  2008-03-28
?Not For Public Consumption 2,247 44 (1.64)  2008-03-09
?Hillary Clinton gets Easy Questions 33,337 872 (4.30)  2007-12-03
?Arnold's Quaid Game 24,694 550 (4.11)  2007-09-28
?The March of Parisect 3,350 85 (3.26)  2007-09-25
?Alan Grant Has No Class 12,866 247 (3.94)  2007-09-24
?Film Summary - Hitchcock 's North by Nort... 3,689 103 (3.74)  2007-09-24
?(nsfw) Tom Cruise's Cravings 8,964 380 (4.20)  2007-07-26
?That Jurassic Park Adventure 28,634 814 (4.49)  2007-06-16
?28 Stones Later 863 14 (3.71)  2007-06-10
?Indiana Jones' Next Adventure 17,534 444 (4.26)  2007-06-02
?Mr. Oliver Twist Goes to Washington 755 14 (3.79)  2007-05-20
?Doc Ock Loves the 80's 2,414 75 (3.87)  2007-05-15
?Democratic Temptations 1,132 56 (3.75)  2007-04-21
?Chris Rock: Upvoter 6,775 305 (4.10)  2007-04-19
?(nsfw) Dr. Mario's Diagnosis 3,406 133 (3.87)  2007-04-04
?Casting Gandalf 810 8 (3.38)  2007-03-31
?Indiana's Eye-M 2,116 83 (3.92)  2007-03-31
?Sloppy Smorgasbord 5,858 302 (4.02)  2007-03-24
?Jerraptor 2,156 38 (3.71)  2007-03-13
?Natural Election 465 7 (3.57)  2007-03-11
?(nsfw) Sex in the East 7,739 296 (3.93)  2007-03-04
?Metal Gear Idol 30,878 651 (4.33)  2007-03-02
?The Face Comes 715 21 (3.57)  2007-02-24
?The Fountain of Youth is... 11,571 405 (3.97)  2007-02-19
?Adam Carolla Vs. Scientology 13,014 304 (4.12)  2007-02-11
?Rosie's New Manager 5,588 345 (4.39)  2007-02-04
?Duel of Crates 1,006 20 (3.80)  2007-02-03
?The Scientologist's Afterlife 7,723 310 (4.00)  2007-01-27
?Love 4 Turtle Dove 1,296 28 (3.75)  2007-01-27
?It's Lord Myotismon!!! 615 12 (2.83)  2007-01-21
?George Washington's Sexual Revolution 2,378 20 (3.75)  2007-01-10
?Reminder: Wear a Condom 1,001 12 (3.33)  2007-01-08
?I'm Mr. Vein 526 16 (3.44)  2007-01-04
?Dances with Windmills 1,601 26 (4.15)  2006-12-27
?Jocker Jams 746 11 (2.91)  2006-12-24
?Joker Gets Spooky 3,173 20 (3.75)  2006-12-24
?Exposing Age of Mythology 827 13 (3.31)  2006-12-15
?My Girl Solid 3 833 9 (3.44)  2006-12-08
?Skinner's Fiery Deed 5,888 316 (4.02)  2006-12-03
?Yodemo 292 7 (3.71)  2006-11-29
?Fast Food's Circle of Strife 22,898 979 (4.59)  2006-11-23
?Danzig with Wolves 2,041 18 (3.39)  2006-11-22
?Al Gore's "An Inconvenient Truth&quot... 753 12 (3.33)  2006-11-21
?Kamehameha Caterpillar 905 10 (3.20)  2006-11-15
?Velocirackbar Kitchen Infestation 1,331 71 (3.89)  2006-11-08
?Abandoned Bedroom 2,196 40 (4.25)  2006-11-05
?The Island of Iraq 1,200 10 (3.60)  2006-10-31
?Roll Call: Chosen One-01 8,330 498 (4.49)  2006-10-27
?Jurassic Park Gone Kinky - Dry Anal Rape 17,684 86 (4.27)  2006-10-17
?Bob Dole's Inappropriate Erection # 1 1,783 24 (3.63)  2006-10-15
?Homer Expresses Love 21,926 682 (4.24)  2006-10-14
?Is Ned Ryerson Right? 2,790 26 (4.15)  2006-10-14
?The Beauty of Clerks 1,112 17 (3.82)  2006-09-19
?Lincoln Supreme Final Form 2,043 14 (4.07)  2006-09-19
?Gamespot's Greg Kasavin Revealed 412 10 (2.10)  2006-09-19
?Why Brock Keeps His Eyes Closed 920 14 (3.64)  2006-09-12
?Usual Suspects Buy A Car 696 12 (3.67)  2006-08-25
?Link Masters Guitar Hero 20,320 405 (3.99)  2006-08-24
?The Muthaf*ckin Dawn of a New Muthaf*ckin Era 686 13 (3.85)  2006-08-20
?testsetest 1,868 22 (3.14)  2006-08-20
?Link Receives Personal Advice... 683 13 (3.77)  2006-07-23
?This Week on Hack... 691 10 (3.50)  2006-07-23
?What is Tim Allen... 729 11 (2.55)  2006-07-21
?Look Here for the Apartment 365 8 (3.13)  2006-06-20
?The Pope Converts 3,261 21 (3.95)  2006-06-02
?Hindu Gamer Suicide 2,021 26 (1.88)  2006-06-02
?Darth Vader has gone crazy 1,317 60 (2.65)  2006-05-24
?R.I.P. AFI - decemberunderground 1,821 21 (2.86)  2006-05-23
?SlopTit Enters... 435 16 (3.13)  2006-05-01
?Shawshank Gets a New Inmate 2,635 507 (3.57)  2006-05-01
?What'll I Do??? 583 8 (2.88)  2006-02-22
?Brian Peppers Spray 1,116 19 (3.53)  2006-02-21
?World of Warcraft = Awesome Incredible! 7,464 14 (2.86)  2006-02-19
?Dick Cheney Shooting - The Way it Really Happen... 4,406 34 (3.79)  2006-02-17
?Peppers Ann 730 11 (3.55)  2006-02-05
?Brian Peppers Next Life 717 12 (2.83)  2006-02-05
?The Brian Peppers Genetic Tree 907 17 (2.24)  2006-02-04
?Brian Peppers Under the Sea 623 12 (3.17)  2006-02-03
?Brian Peppers is Jeepers Creepers 701 12 (2.67)  2006-02-03
?Bright Eyes Yugi-Oh, Conor Oberst's tr... 2,445 17 (3.18)  2006-01-28
?Homer Simpson Ponders the Mona Lisa - Braces 6,925 43 (4.07)  2006-01-26
?Fabio Goose Disaster 11,265 15 (3.60)  2006-01-12
?South Park Ski Instructor 2,903 20 (3.90)  2006-01-09
?The Vikings Will Go Sailing No More - Culpepper Ti... 2,744 17 (3.88)  2006-01-09
?Office Space - Michael Bolton 3,289 17 (3.35)  2006-01-09
?Half Life Enters the World of Warcraft 5,786 12 (2.33)  2006-01-09
?Half Life Gets A Lesson From Teacher 3,299 20 (3.65)  2006-01-09